sat.trackr.live / text

‹ back to catalog

YAOGAN-33 03

NORAD 57797 · 2023-136A

PAYLOAD ACTIVE UNKNOWN

§ Identity

Operator
Country
PRC
Launch date
2023-09-06
Launch site
JSC
Launch vehicle
Mass (kg)
RCS (m²)

External: N2YO · Heavens-Above · Gunter

§ Orbital elements

Epoch: 2026-05-25T05:09:31.584960Z

Period
98.72 min
Inclination
98.1958°
Eccentricity
0.0006385
Mean motion
14.58703092 rev/d
Perigee alt
692.8 km
Apogee alt
701.9 km
Semi-major
7,075.5 km
B*
8.9899e-5
RAAN
69.8441°
Arg perigee
258.2568°
Mean anomaly
101.7915°
Rev number
14,458

§ Raw data

YAOGAN-33 031 57797U 23136A   26145.21494890  .00000373  00000+0  89899-4 0  99942 57797  98.1958  69.8441 0006385 258.2568 101.7915 14.58703092144582

JSON: /api/v1/satellites/57797 · /tle

For live sub-satellite position, see the globe view (requires WebGL).

§ Visibility from observer

Set your observer location to see the next 7 days of passes ≥ 10°. The values pass through the URL so the page stays shareable.

No JS? Fill the form by hand. The geolocation button needs JavaScript.